+ View the NASA Portal
+ Center for Near-Earth Object Studies
IMPORTANT:
The SSD Announcement email list is now available. Major changes are coming in the near future, including possible hostname and/or URL changes. To be notified of such changes, subscribe to this email list.
Please visit
this page
for more details.
Don't show this message again
JPL Small-Body Database Browser
Search:
[
help
]
117454 (2005 AG59)
Classification:
Main-belt Asteroid
SPK-ID:
2117454
[
Ephemeris
|
Orbit Diagram
|
Orbital Elements
|
Mission Design
|
Physical Parameters
|
Discovery Circumstances
|
Close-Approach Data
]
[ show orbit diagram ]
Orbital Elements at Epoch 2458600.5 (2019-Apr-27.0) TDB
Reference:
JPL 19
(heliocentric ecliptic J2000)
Element
Value
Uncertainty (1-sigma)
Units
e
.02394559713548423
6.2713e-08
a
2.937843665182795
2.5216e-08
au
q
2.867495244329293
1.8329e-07
au
i
3.018580565945222
4.7045e-06
deg
node
118.1258958078206
0.00013237
deg
peri
70.7050102498666
0.00017122
deg
M
232.6765705451241
0.00010838
deg
t
p
2459250.999962886382
(2021-Feb-05.49996289)
0.00055547
TDB
period
1839.252898242835
5.04
2.368e-05
6.483e-08
d
yr
n
.195731647531415
2.52e-09
deg/d
Q
3.008192086036297
2.582e-08
au
Orbit Determination Parameters
# obs. used (total)
359
data-arc span
8294 days (22.71 yr)
first obs. used
1996-05-11
last obs. used
2019-01-25
planetary ephem.
DE431
SB-pert. ephem.
SB431-N16
condition code
0
norm. resid. RMS
.59872
source
ORB
producer
Otto Matic
solution date
2019-Jul-14 00:54:20
Additional Information
Earth MOID
= 1.86902 au
Jupiter MOID
= 1.95085 au
T_jup
= 3.271
[ show covariance matrix ]
[
Ephemeris
|
Orbit Diagram
|
Orbital Elements
|
Mission Design
|
Physical Parameters
|
Discovery Circumstances
|
Close-Approach Data
]
Physical Parameter Table
Parameter
Symbol
Value
Units
Sigma
Reference
Notes
absolute magnitude
H
15.7
n/a
MPO412803
117454 (2005 AG59)
Discovered 2005-Jan-15 by LINEAR at Socorro
Reference:
20051019/Numbers.arc
Last Updated:
2005-10-26
[ show close-approach data ]
Alternate Designations
2005 AG59
= 1996 JJ13 = 1997 OT2
[
Ephemeris
|
Orbit Diagram
|
Orbital Elements
|
Mission Design
|
Physical Parameters
|
Discovery Circumstances
|
Close-Approach Data
]
2019-Dec-14 17:38 UT
(server date/time)
Site Manager:
Ryan S. Park
Webmaster
:
Alan B. Chamberlin